Temp
84 85 84 84 84 83 83 83 82 82 82 82 82 78 80 79 79 77 77 75 75 73 75 74 73 73 72 71 75 78 72 69 67 66 70 68 69 70 73 73 72 73 66
86 85 83 83 83 81 81 82 82 81 83 83 82 81 81 80 79 75 74 75 75 74 74 73 74 71 70 72 71 71 73 73 66 65 64 63 64 67 70 67 65 68 66
86 84 82 81 81 80 80 81 82 81 82 82 82 81 81 81 75 75 77 75 76 74 73 68 67 71 66 70 74 74 72 71 71 69 61 61 60 62 62 62 62 61 61
86 84 81 80 80 80 81 80 81 82 81 81 81 82 83 82 77 77 78 77 76 73 70 68 65 64 68 68 66 72 71 70 69 68 61 59 59 59 60 57 56 58 58
85 83 80 81 81 81 81 81 81 81 82 83 82 82 83 82 77 76 78 76 74 71 67 65 65 63 61 61 66 70 69 69 69 64 62 59 57 57 56 57 56 56 57
84 82 82 82 82 78 76 78 80 80 81 81 76 77 77 73 50 55 65 74 73 70 66 63 63 60 59 55 56 56 66 72 69 66 64 58 57 57 57 56 56 54 52
83 83 83 82 79 75 76 75 78 78 75 73 74 74 75 74 50 51 53 73 70 70 65 62 61 63 62 70 57 56 56 57 62 69 64 61 57 58 57 56 57 59 55
84 84 84 84 81 79 75 75 77 76 76 75 76 76 75 70 49 48 51 74 72 70 64 62 62 66 68 68 71 69 71 69 67 70 66 64 63 62 59 59 59 57 56
84 84 85 85 82 81 76 76 75 74 73 74 76 75 73 71 48 49 59 71 69 66 64 63 64 66 51 52 68 67 66 67 52 52 53 50 48 49 56 57 55 55 53
86 86 87 86 83 78 74 75 76 75 74 75 73 75 62 71 48 47 57 69 68 63 62 59 51 62 47 48 67 67 64 65 66 62 60 54 56 54 52 59 60 57 56
88 88 86 79 78 75 75 77 75 73 73 72 73 73 72 70 64 47 50 73 69 63 64 65 61 47 45 47 50 68 66 67 59 63 62 59 59 60 60 60 63 62 61
88 87 83 75 77 79 75 73 72 71 71 70 70 69 72 70 54 49 49 51 56 66 68 67 61 43 44 46 52 46 48 59 67 62 59 58 58 58 60 63 63 63 63
86 84 80 76 75 76 75 71 72 73 72 72 68 71 69 72 70 47 47 49 48 66 68 48 42 42 43 47 45 47 51 67 66 61 59 59 61 63 62 62 61 62 67
84 83 80 74 72 75 73 73 72 72 73 72 71 73 69 72 71 70 64 61 52 59 53 57 49 48 48 51 54 57 66 67 64 61 60 62 63 65 63 66 62 63 70
83 82 81 73 77 75 74 71 72 72 68 71 68 71 70 70 66 61 63 65 68 59 59 60 58 56 54 56 59 63 65 64 65 64 63 62 63 64 66 69 70 69 69
81 82 83 82 82 79 75 71 43 45 43 45 47 59 67 51 44 45 46 44 45 46 62 59 56 56 56 57 57 60 62 60 65 65 63 61 61 64 63 67 69 68 68
81 81 83 80 83 80 74 74 69 58 43 42 43 44 50 46 43 42 42 42 43 50 62 59 58 58 58 59 58 59 60 64 64 66 65 66 68 69 67 69 72 71 70
83 62 84 85 84 82 79 75 73 70 69 68 48 50 42 42 41 40 42 48 57 55 65 62 59 59 59 60 61 62 63 64 67 71 70 69 70 70 68 70 70 70 75
84 85 86 87 85 79 80 79 75 74 71 68 66 54 45 39 40 41 43 64 62 60 62 65 65 62 63 64 64 66 70 72 71 72 71 71 73 70 70 72 74 56 62
85 67 72 86 83 83 83 74 74 73 70 74 72 71 60 56 59 60 62 63 69 68 70 71 67 67 65 67 69 68 71 70 71 72 72 74 72 73 74 75 77 78 76
87 85 63 87 85 86 85 73 73 74 77 78 76 71 50 72 70 71 71 70 72 73 72 75 76 73 71 71 72 72 70 73 72 75 74 72 74 75 77 80 79 79 79
88 86 85 88 87 86 85 86 85 84 84 82 80 66 44 70 78 75 75 75 76 72 74 76 78 77 78 76 75 76 76 76 77 77 77 76 75 78 79 79 79 79 79
88 86 85 88 87 70 83 86 86 86 85 84 79 74 72 76 80 81 79 80 81 83 83 80 76 77 78 78 81 80 79 80 81 81 80 79 80 81 81 79 79 79 79
88 86 85 87 88 86 86 85 86 71 85 84 80 78 78 80 84 83 83 83 82 83 84 84 85 86 84 84 84 85 84 83 83 83 81 79 79 74 79 80 80 80 80
89 86 86 86 85 86 85 86 85 86 86 86 83 81 83 84 84 83 84 84 84 84 84 81 79 77 61 59 55 51 39 35 55 44 81 82 81 81 81 82 81 81 80
76 82 84 84 82 80 74 68 69 75 74 72 70 71 71 68 69 70 68 66 65 59 64 62 59 61 58 53 48 36 34 34 42 35 59 77 78 79 80 80 80 80 80
MSLP
996.64 997.26 997.87 998.41 999.02 999.71 999.89 1000.37 1000.95 1001.53 1001.97 1002.39 1002.85 1003.46 1003.82 1004.24 1004.63 1005.05 1005.12 1005.50 1005.86 1006.23 1006.27 1006.63 1006.89 1007.17 1007.16 1007.34 1007.16 1006.93 1007.40 1007.92 1008.23 1009.39 1009.86 1010.49 1010.55 1010.56 1010.60 1010.90 1011.52 1011.92 1013.04
996.62 997.34 998.15 998.82 999.36 999.79 1000.12 1000.63 1001.20 1001.72 1002.09 1002.33 1002.72 1003.19 1003.62 1004.06 1004.58 1005.09 1005.17 1005.22 1005.55 1006.03 1006.35 1006.61 1006.78 1007.16 1007.17 1007.32 1007.48 1007.44 1007.36 1007.81 1008.32 1009.14 1010.31 1010.92 1011.06 1010.98 1011.07 1011.55 1012.24 1012.63 1013.29
996.70 997.63 998.43 999.01 999.54 999.89 1000.32 1000.81 1001.33 1001.83 1002.07 1002.32 1002.75 1003.09 1003.38 1003.69 1004.50 1004.88 1004.68 1005.06 1005.59 1006.00 1006.50 1007.03 1007.13 1007.31 1007.44 1007.46 1007.31 1007.29 1007.60 1008.02 1008.31 1009.18 1010.40 1011.17 1011.61 1011.54 1011.82 1012.30 1012.86 1013.50 1014.17
996.87 997.70 998.49 999.13 999.61 1000.00 1000.52 1001.03 1001.35 1001.77 1002.08 1002.39 1002.72 1002.89 1003.15 1003.48 1004.30 1004.42 1004.49 1005.13 1005.66 1006.43 1006.97 1007.31 1007.67 1007.79 1007.82 1007.69 1007.47 1007.45 1007.68 1007.96 1008.54 1009.47 1010.56 1011.21 1011.75 1012.14 1012.40 1012.90 1013.71 1014.39 1015.09
996.87 997.75 998.63 999.29 999.73 1000.15 1000.59 1000.97 1001.42 1001.74 1002.00 1002.19 1002.52 1002.74 1003.04 1003.33 1004.24 1004.39 1004.70 1005.33 1005.80 1006.59 1007.28 1007.74 1007.79 1007.90 1008.12 1008.25 1008.01 1007.79 1007.84 1008.07 1008.76 1009.77 1010.56 1011.38 1012.06 1012.46 1012.85 1013.49 1014.06 1014.92 1015.98
996.99 997.90 998.71 999.10 999.59 1000.26 1000.89 1001.18 1001.48 1001.83 1002.00 1002.24 1002.92 1003.19 1003.48 1004.49 1005.11 1005.20 1005.66 1005.47 1005.98 1006.60 1007.29 1007.70 1007.82 1008.05 1008.22 1008.41 1008.46 1008.19 1007.93 1007.98 1008.62 1009.66 1010.51 1011.43 1012.10 1012.56 1013.12 1013.60 1014.22 1015.20 1016.59
997.09 997.89 998.38 998.90 999.67 1000.65 1001.12 1001.52 1001.68 1001.95 1002.47 1002.87 1003.20 1003.53 1003.99 1004.94 1005.64 1005.81 1006.05 1005.79 1006.09 1006.42 1007.27 1007.48 1007.77 1008.02 1008.22 1008.08 1008.47 1008.47 1008.41 1008.74 1009.26 1009.63 1010.31 1011.29 1012.16 1012.78 1013.06 1013.97 1014.66 1015.23 1016.22
996.91 997.52 998.18 998.70 999.56 1000.31 1001.09 1001.46 1001.73 1002.34 1002.72 1003.16 1003.44 1003.72 1004.34 1005.37 1006.13 1006.29 1006.25 1005.94 1006.12 1006.58 1007.33 1007.46 1007.77 1007.63 1007.81 1007.99 1008.08 1008.50 1008.81 1009.50 1010.00 1010.08 1010.72 1011.47 1012.09 1012.95 1013.40 1013.97 1014.65 1015.79 1016.96
996.66 997.31 997.90 998.37 999.23 999.95 1000.74 1001.47 1002.00 1002.69 1003.23 1003.42 1003.48 1003.95 1004.44 1005.42 1006.38 1006.45 1006.30 1006.13 1006.40 1006.95 1007.41 1007.70 1007.86 1007.82 1008.25 1008.49 1008.34 1008.69 1009.27 1010.01 1010.71 1010.69 1011.35 1012.15 1012.82 1013.30 1013.68 1014.27 1015.32 1015.84 1016.92
996.45 997.10 997.63 998.31 999.19 1000.16 1000.89 1001.58 1002.11 1002.66 1003.21 1003.44 1003.66 1003.98 1004.83 1005.40 1006.45 1006.52 1006.54 1006.27 1006.54 1007.18 1007.72 1008.08 1008.22 1008.05 1008.61 1008.86 1008.69 1008.74 1009.32 1010.32 1010.94 1011.90 1012.59 1013.18 1013.37 1014.03 1014.45 1014.62 1014.93 1015.48 1016.29
996.35 996.98 997.68 998.86 999.69 1000.51 1001.03 1001.59 1002.26 1002.81 1003.21 1003.60 1003.96 1004.35 1004.74 1005.18 1006.34 1006.67 1006.57 1006.00 1006.58 1007.18 1007.56 1007.96 1008.41 1008.67 1008.94 1009.22 1009.16 1009.10 1009.45 1010.22 1011.33 1011.98 1012.67 1013.41 1013.96 1014.48 1014.93 1015.16 1015.12 1015.60 1016.12
996.28 996.93 998.18 999.49 1000.09 1000.58 1001.35 1002.06 1002.60 1003.00 1003.32 1003.80 1004.22 1004.57 1004.95 1005.70 1006.50 1006.90 1006.95 1006.91 1006.97 1007.04 1007.10 1007.54 1008.45 1008.84 1009.26 1009.62 1009.80 1009.85 1010.11 1010.61 1011.21 1012.20 1012.92 1013.59 1014.17 1014.67 1015.08 1015.16 1015.57 1016.03 1016.10
996.27 997.11 998.54 999.73 1000.36 1000.96 1001.62 1002.34 1002.75 1003.08 1003.24 1003.60 1004.19 1004.46 1005.09 1005.50 1006.34 1007.11 1007.21 1007.33 1007.45 1007.10 1007.58 1008.48 1008.79 1009.17 1009.76 1010.05 1010.20 1010.25 1010.62 1010.92 1011.51 1012.36 1013.03 1013.64 1014.15 1014.62 1015.14 1015.51 1015.85 1015.98 1015.75
996.43 997.44 998.69 999.79 1000.58 1001.21 1002.08 1002.60 1002.70 1002.97 1003.23 1003.56 1004.07 1004.11 1004.84 1005.33 1005.98 1006.59 1007.40 1007.77 1007.91 1008.32 1008.75 1009.12 1009.40 1009.67 1010.02 1010.42 1010.86 1010.94 1011.07 1011.34 1011.92 1012.58 1013.16 1013.69 1014.23 1014.72 1015.28 1015.32 1015.77 1015.95 1015.25
996.77 997.67 998.40 999.89 1000.17 1001.12 1002.29 1003.29 1003.35 1003.41 1003.80 1003.95 1004.40 1004.49 1004.89 1005.39 1006.18 1006.28 1006.95 1007.54 1007.49 1008.17 1008.88 1009.22 1009.61 1010.10 1010.51 1010.83 1011.08 1011.09 1011.24 1011.57 1011.84 1012.43 1012.99 1013.63 1014.21 1014.52 1014.90 1015.06 1014.97 1015.03 1014.89
996.90 997.58 997.97 998.84 999.35 1000.32 1001.92 1003.32 1004.21 1004.51 1004.82 1004.85 1005.00 1004.98 1005.20 1005.50 1006.41 1006.95 1007.37 1007.86 1008.21 1008.59 1008.68 1009.25 1009.73 1010.15 1010.52 1010.81 1011.07 1011.27 1011.51 1011.67 1011.97 1012.48 1013.00 1013.55 1013.86 1014.23 1014.63 1014.90 1014.80 1014.66 1014.56
996.69 997.32 997.72 998.29 999.07 999.93 1001.29 1002.25 1003.71 1005.21 1005.19 1005.47 1005.67 1005.45 1005.56 1006.59 1006.97 1007.52 1008.01 1008.43 1008.72 1008.62 1008.85 1009.38 1009.76 1010.12 1010.42 1010.72 1011.05 1011.34 1011.55 1011.73 1012.17 1012.32 1012.62 1012.91 1013.29 1013.55 1013.92 1014.12 1014.05 1014.14 1014.11
996.74 997.32 997.63 997.72 998.74 999.72 1000.32 1001.67 1002.71 1003.88 1004.62 1005.49 1006.52 1006.59 1007.02 1007.32 1007.64 1008.03 1008.44 1008.73 1009.07 1009.10 1008.89 1009.28 1009.71 1010.09 1010.40 1010.70 1010.84 1011.07 1011.19 1011.61 1011.61 1011.40 1011.78 1012.34 1012.54 1012.85 1013.37 1013.47 1013.58 1013.50 1012.75
996.56 997.16 997.25 997.47 998.49 999.41 1000.14 1000.96 1001.99 1002.90 1003.74 1004.86 1006.26 1007.38 1007.98 1008.17 1008.36 1008.55 1008.53 1008.35 1008.50 1008.81 1008.77 1008.68 1009.26 1009.82 1010.16 1010.51 1010.69 1010.75 1010.44 1010.51 1010.71 1010.88 1011.39 1011.69 1011.93 1012.37 1012.58 1012.61 1012.51 1012.49 1012.24
996.42 996.99 996.98 997.34 998.54 999.11 999.61 1000.82 1001.56 1002.20 1002.95 1003.69 1004.89 1005.90 1007.61 1008.18 1008.51 1008.58 1008.38 1007.99 1007.56 1007.93 1007.93 1007.88 1008.48 1009.16 1009.69 1009.97 1010.02 1010.11 1010.00 1010.31 1010.47 1010.74 1011.02 1011.19 1011.79 1011.93 1011.64 1011.70 1011.52 1011.20 1011.67
996.04 997.10 997.25 997.06 997.97 998.27 998.82 1000.28 1001.13 1001.46 1001.60 1002.57 1003.82 1005.36 1006.46 1006.79 1007.06 1007.14 1007.01 1007.07 1006.90 1007.02 1007.20 1007.17 1007.44 1008.10 1008.94 1009.27 1009.37 1009.50 1009.76 1009.81 1010.16 1010.20 1010.61 1011.04 1011.10 1011.03 1010.70 1010.36 1010.52 1010.79 1010.75
995.72 996.72 997.10 996.63 997.46 997.94 998.63 998.84 999.40 999.93 1000.35 1001.23 1002.94 1005.45 1006.25 1006.33 1005.40 1006.03 1006.13 1006.13 1005.87 1006.40 1006.62 1006.79 1007.02 1007.63 1007.74 1008.07 1008.41 1008.77 1009.01 1009.09 1009.27 1009.46 1009.77 1010.03 1010.30 1010.10 1009.97 1010.00 1010.03 1009.99 1009.93
995.53 996.58 996.89 996.51 997.18 998.04 998.74 999.09 999.47 999.60 1000.10 1001.02 1003.05 1004.83 1005.93 1005.34 1004.22 1004.50 1005.04 1005.38 1005.28 1005.05 1005.56 1006.25 1006.78 1006.85 1007.11 1007.40 1007.48 1007.89 1007.97 1008.04 1008.19 1008.43 1008.72 1008.95 1008.88 1008.70 1008.77 1008.98 1009.17 1009.23 1009.27
995.54 996.42 996.86 996.49 996.98 997.88 998.45 998.89 999.50 999.92 1000.16 1000.97 1002.77 1004.11 1004.60 1004.10 1003.49 1003.80 1004.18 1004.81 1005.32 1005.49 1005.42 1005.83 1005.99 1006.07 1006.63 1006.93 1006.79 1007.01 1007.12 1007.22 1007.43 1007.76 1008.39 1008.62 1008.67 1008.54 1008.54 1008.34 1008.34 1008.36 1008.44
995.65 996.47 996.90 996.84 997.43 997.97 998.53 998.91 999.63 1000.24 1000.67 1001.11 1002.21 1003.24 1003.77 1003.80 1003.68 1003.77 1004.14 1004.65 1005.06 1005.39 1005.73 1006.39 1006.69 1007.07 1008.68 1009.10 1009.95 1010.34 1010.50 1009.85 1009.06 1008.97 1008.05 1007.96 1007.94 1007.90 1007.77 1007.57 1007.61 1007.66 1007.71
997.05 997.02 997.25 997.53 998.35 999.08 1000.39 1001.15 1001.57 1001.78 1002.71 1003.61 1004.54 1005.22 1005.61 1005.85 1006.08 1006.25 1006.56 1007.31 1007.72 1008.06 1008.37 1009.08 1009.81 1009.76 1010.21 1010.94 1011.68 1012.06 1011.61 1011.03 1010.58 1010.30 1009.52 1008.62 1008.32 1008.08 1007.81 1007.47 1007.40 1007.36 1007.25
Wind_Speed
15 14 14 13 13 13 11 11 10 9 9 10 9 6 8 8 7 6 2 6 7 7 5 4 6 5 4 3 3 5 4 3 6 4 4 4 3 5 6 7 9 10 8
15 14 14 14 14 13 12 11 11 9 9 9 9 9 8 8 8 6 6 6 5 5 4 4 5 3 4 4 4 6 3 4 6 9 4 2 3 1 8 10 7 6 9
15 15 15 14 13 12 11 10 10 9 9 9 9 9 9 9 7 7 5 4 5 6 6 5 4 1 3 5 6 6 4 4 5 8 4 2 2 2 7 8 8 10 7
16 16 15 13 13 11 10 10 10 10 10 9 9 9 9 8 5 5 4 6 7 7 6 5 3 2 2 5 4 4 5 6 7 7 6 4 3 4 6 9 8 7 8
15 15 14 12 12 12 11 10 10 10 9 10 9 8 7 6 3 1 5 7 8 8 6 3 2 2 2 5 4 4 6 7 7 7 7 6 5 3 8 6 10 10 8
15 14 14 13 12 9 7 9 9 9 8 7 5 2 3 7 8 9 3 5 8 9 6 3 3 4 3 2 2 3 4 7 9 8 8 7 7 7 8 10 12 12 6
14 14 13 12 13 8 8 7 10 9 7 5 6 5 7 7 6 4 3 3 7 7 6 3 3 3 6 6 6 8 9 9 9 7 11 10 8 9 9 10 12 9 8
14 14 13 12 14 14 9 9 10 9 7 5 5 6 6 6 4 2 2 3 4 8 6 3 4 5 7 6 9 8 9 9 9 4 8 9 10 12 9 10 12 12 9
14 13 13 12 12 11 9 9 9 8 6 7 5 8 6 7 5 4 2 4 6 8 5 3 2 4 8 7 8 11 9 9 9 14 13 14 13 13 12 12 10 12 8
14 13 12 12 11 10 8 10 8 9 7 6 6 6 6 8 5 2 4 4 7 6 5 3 3 3 9 5 7 11 12 12 12 13 13 13 13 11 8 6 11 11 9
14 13 11 10 9 6 8 8 7 7 7 6 8 6 6 6 7 1 6 2 6 5 4 4 3 5 8 5 2 7 11 13 13 11 11 9 9 8 6 5 4 7 9
14 13 14 10 7 8 8 8 8 7 8 7 8 6 6 6 6 5 5 7 4 5 2 4 5 8 8 5 3 10 12 12 10 8 8 8 8 7 6 4 6 6 4
14 12 15 10 7 9 9 8 8 8 7 8 6 7 7 7 7 8 7 6 10 3 7 9 10 9 11 9 9 14 10 7 9 8 8 8 7 8 6 5 5 6 6
14 12 15 8 9 10 6 5 5 6 6 6 6 6 6 6 5 6 5 6 9 9 9 7 9 10 9 8 6 8 6 7 8 7 7 6 7 10 7 6 5 7 7
13 12 11 9 11 10 7 2 3 5 2 3 6 5 8 6 4 7 7 6 5 9 9 6 5 4 5 5 4 3 6 4 8 7 8 8 9 8 8 7 6 7 5
13 11 10 10 9 12 9 8 15 12 11 11 8 3 7 13 14 12 12 12 13 11 6 6 5 6 6 6 5 6 5 5 7 8 8 7 8 8 7 8 7 7 7
13 11 10 10 9 7 8 8 8 5 12 13 12 9 10 12 12 12 11 13 9 4 7 7 5 5 6 6 6 6 4 7 9 9 10 10 11 11 10 9 8 7 8
13 10 9 10 9 7 9 8 7 7 6 7 11 8 10 11 11 12 14 10 5 2 6 8 6 6 5 5 5 6 6 8 9 10 9 10 10 10 8 8 8 8 11
13 10 10 10 10 9 8 9 9 8 8 8 8 7 8 10 9 7 6 8 6 6 4 5 9 7 6 7 6 6 9 11 9 9 9 10 9 6 8 9 10 11 8
12 12 9 10 10 10 9 8 6 9 8 10 10 10 8 6 6 7 6 5 7 8 8 7 8 10 8 7 8 6 7 7 7 8 8 7 7 8 9 11 12 9 10
11 11 8 10 10 9 9 12 10 8 8 10 10 11 12 10 10 9 8 6 7 7 6 6 7 10 11 9 8 7 6 7 7 7 7 6 7 10 11 10 9 11 10
12 12 10 10 9 9 8 6 10 12 10 10 11 10 12 10 10 9 8 7 8 9 7 8 9 7 9 9 9 9 9 10 10 11 11 10 10 12 11 11 11 11 11
12 13 11 8 10 10 9 8 7 6 8 13 11 10 10 9 8 10 9 9 6 5 9 11 11 9 8 7 9 10 11 11 10 9 10 10 10 10 10 10 11 11 11
12 14 13 9 11 10 9 10 8 5 8 12 12 10 9 9 6 8 8 7 7 5 5 6 4 5 6 5 5 6 3 4 6 9 11 10 10 9 9 11 11 14 12
13 12 12 9 10 9 9 9 10 8 6 10 12 12 9 6 3 5 5 6 7 6 3 9 10 14 23 21 19 18 15 14 12 10 6 11 13 14 12 11 12 12 14
12 5 5 7 7 8 13 12 14 12 15 14 14 14 14 13 13 14 14 17 15 12 15 13 17 22 21 19 20 15 14 15 14 13 9 9 11 11 11 13 17 13 15
Wind_Direction
158 160 150 151 144 149 152 142 138 149 150 169 173 157 180 171 182 180 253 158 184 184 201 205 197 205 228 276 234 218 135 165 129 101 98 67 83 146 149 120 150 129 140
158 148 150 147 149 148 145 146 146 162 171 169 170 170 170 174 174 184 216 164 178 191 205 219 200 162 272 225 217 235 157 163 157 147 127 95 80 103 133 104 93 116 134
149 148 148 149 147 146 146 145 160 160 166 160 167 171 177 175 154 204 189 164 148 142 124 93 40 167 199 221 228 208 151 154 154 147 126 108 69 39 96 85 91 93 101
151 150 149 149 147 144 145 157 159 167 161 161 174 175 181 169 168 216 158 136 163 127 121 114 111 62 341 311 233 226 162 148 113 130 125 110 90 76 105 114 96 100 110
150 147 147 144 146 150 154 156 162 164 172 172 172 178 185 180 153 47 125 171 159 144 133 140 166 206 279 322 321 194 160 148 132 142 138 117 116 124 129 120 108 106 91
149 144 152 152 151 130 159 155 160 167 174 148 148 156 156 76 56 57 349 191 165 157 153 168 202 198 230 306 330 40 177 159 131 152 133 136 128 118 129 129 126 126 114
152 153 152 154 129 150 151 167 164 169 138 148 181 140 126 107 63 59 12 195 157 160 150 178 200 184 217 187 126 91 66 82 117 165 139 153 134 143 131 131 132 127 123
153 153 155 164 156 160 163 175 165 148 168 149 163 140 147 102 111 90 354 146 145 134 144 161 199 218 181 161 159 142 133 124 144 149 124 139 136 142 128 132 123 113 102
157 158 163 157 155 153 144 175 140 151 168 179 170 154 143 122 123 111 246 127 116 105 124 128 174 120 136 157 147 143 119 105 51 97 112 107 109 103 121 120 129 132 129
159 165 164 153 154 137 148 153 166 153 162 160 151 132 109 125 122 78 296 154 132 114 114 100 56 143 154 190 186 148 131 128 118 108 108 102 114 117 112 120 142 140 134
161 161 149 107 130 147 133 141 137 159 152 143 139 138 110 131 122 37 354 147 128 145 149 161 145 167 170 165 327 147 130 125 115 125 126 117 119 134 116 162 126 135 153
163 160 120 124 146 146 134 137 148 150 149 146 141 135 121 118 79 100 49 35 57 142 129 111 120 151 149 133 58 123 113 133 129 126 128 132 139 141 149 131 130 145 222
158 150 131 139 144 133 148 148 151 168 160 157 155 152 150 148 130 95 78 66 36 55 70 72 93 109 105 98 123 121 143 124 129 131 135 140 148 140 142 127 150 184 218
152 149 136 142 140 138 142 176 162 161 175 153 166 169 144 148 146 145 128 124 116 98 112 89 89 83 82 104 125 145 128 140 133 134 136 138 125 144 161 167 159 208 207
151 153 153 135 166 134 111 118 181 99 50 145 160 187 153 169 131 130 146 154 147 106 124 116 102 101 110 118 133 146 127 143 139 148 147 145 147 164 165 188 199 203 204
158 160 175 150 164 136 144 116 49 55 56 59 55 89 72 97 107 104 110 100 115 157 129 115 118 127 133 134 128 126 135 148 145 153 149 152 152 173 168 195 215 207 210
172 169 152 166 152 155 142 151 144 88 68 53 34 54 82 115 105 113 119 121 127 128 122 124 123 124 125 134 138 148 155 143 149 160 161 169 172 190 175 196 199 211 238
173 172 164 156 145 165 151 141 139 154 162 139 54 60 86 107 110 121 130 118 117 90 150 138 133 135 138 141 152 162 178 161 190 180 169 180 188 175 179 201 212 225 234
169 175 189 146 145 154 149 159 148 150 154 150 133 91 69 70 95 125 173 143 148 155 194 170 152 159 164 173 182 187 198 176 186 180 171 182 177 185 204 214 212 223 231
177 175 210 149 135 160 154 146 164 150 190 148 171 153 141 146 152 171 202 233 174 168 190 175 160 165 170 183 193 202 185 176 171 178 187 182 185 224 219 213 226 226 209
171 170 238 162 157 164 168 155 167 188 164 155 167 150 160 177 168 177 182 183 197 167 181 182 173 167 165 179 192 174 192 181 190 195 179 207 213 216 238 232 217 229 249
164 168 202 176 163 155 163 166 161 172 158 152 122 139 175 229 167 173 184 197 186 183 186 179 174 183 187 184 181 189 194 206 205 205 205 210 214 220 224 225 238 247 250
163 163 203 185 164 133 155 162 174 168 156 125 126 144 184 224 218 161 175 180 220 183 158 176 188 181 182 190 195 200 209 209 213 213 214 225 234 234 229 234 244 248 250
163 165 199 195 158 160 173 157 162 172 158 128 126 148 184 228 162 143 156 161 171 217 178 173 212 180 152 184 200 221 272 277 204 207 219 231 240 242 248 261 250 247 247
162 169 193 193 145 175 160 164 146 151 170 137 141 157 173 186 139 119 136 151 162 171 156 40 20 41 58 51 39 27 8 2 19 350 290 240 241 251 263 263 256 252 255
45 114 167 121 86 68 69 64 55 57 66 67 66 59 53 52 43 39 36 33 44 62 58 55 47 46 49 42 32 24 14 12 8 353 334 289 279 276 277 273 265 262 263